STARLINK-4436 (53479 NORAD) Tracking and Keplerian Element Data

This shows tracking and keplerian element data for the satellite.

Feedback or suggestion? Click here.




ElementValue
Catalog53479
NameSTARLINK-4436
Epoch Orbit1550
Epoch Day325.16377667
Epoch Year2022
RAAN84.201
Inclination97.6568
Eccentricity0.0001791
Argument of Perigee340.0483
Mean Anonmoly20.0671
Mean Motion15.01271457
Decay Rate-4.1E-07
L11 53479U 22099Q 22325.16377667 -.00000041 00000+0 14196-5 0 9998
L22 53479 97.6568 84.2010 0001791 340.0483 20.0671 15.01271457 15506



Live tracking and technical data element details for STARLINK-4436 (NORAD 53479). STARLINK-4436 can be tracked NOW for your location showing map with azimuth and elevation plus other details from your city location.







IsCatalogInMostPopularTable: catalog: 53479, numindb: 6
Update: records affected: 1



GetName: 53479 STARLINK-4436

Hit Count: updated at: Thu, 08 Dec 2022 20:47:22 GMT